Theta_e
291 282 277 281 283 284 283 280 280 284 285 283 281 282 286 288 287 286 287 289 291 295 296 293 290 288 286 286 286 285 285 284 284 282 281 282 281 282 283 284 286 285 285 286
284 279 283 286 286 284 283 280 279 282 285 283 281 283 285 286 284 284 284 285 288 293 292 290 288 287 286 286 286 285 285 284 284 284 283 282 281 282 283 284 284 284 285 285
282 282 286 285 283 282 281 279 277 278 282 283 281 281 286 286 285 286 286 286 289 292 291 288 288 286 285 285 284 284 284 285 284 284 284 283 282 281 281 282 282 283 283 283
283 285 284 283 282 282 278 282 281 280 277 274 281 276 281 284 284 285 286 285 287 287 292 291 289 287 286 285 284 284 285 285 285 284 282 280 278 278 279 280 281 281 282 281
281 282 282 282 281 282 280 283 280 280 276 276 278 273 281 284 282 283 284 285 284 286 288 289 289 288 285 283 283 283 284 285 284 282 281 279 278 279 279 279 278 278 279 280
281 285 282 280 283 283 284 281 280 278 276 272 272 273 280 282 283 283 283 283 284 284 285 286 286 285 283 283 282 283 283 282 282 280 280 279 277 276 276 276 276 277 277 277
282 281 282 283 280 283 281 279 272 274 274 276 266 273 281 284 282 283 283 282 282 283 283 283 282 282 281 281 281 281 280 279 280 279 278 278 277 276 275 275 275 274 275 275
274 277 279 282 279 277 279 277 273 269 271 275 268 274 282 283 283 283 283 283 283 282 282 281 281 280 280 279 278 278 278 278 278 277 277 277 276 275 275 275 274 274 274 273
275 278 280 281 282 280 280 275 278 269 261 268 275 281 285 282 281 282 282 282 281 280 281 280 279 279 278 277 277 277 276 276 276 276 276 275 274 274 273 273 273 273 273 273
278 274 279 280 281 280 280 280 275 273 269 269 273 274 280 279 278 279 281 281 280 278 278 278 278 277 277 277 277 276 276 275 275 275 274 274 273 273 272 272 271 271 271 271
280 276 279 279 276 277 276 275 275 276 276 269 268 276 282 280 279 278 277 281 272 272 276 276 276 276 276 276 275 274 274 274 274 273 273 273 272 272 271 270 270 269 269 268
281 280 273 279 280 281 279 280 278 274 272 272 272 274 280 276 276 276 278 279 275 271 274 275 275 275 275 274 273 273 273 273 273 272 272 271 271 270 269 269 268 268 267 267
281 276 273 282 280 279 275 278 278 274 276 270 270 277 275 272 272 274 274 274 274 272 270 273 275 275 274 274 272 272 272 272 272 271 270 270 269 268 268 267 267 267 266 266
285 279 276 278 281 277 275 277 278 274 267 273 275 280 285 281 278 278 275 272 271 270 270 271 274 273 274 273 271 271 271 272 271 270 269 268 268 268 267 267 266 266 265 265
281 271 275 276 278 275 279 278 275 274 274 273 283 278 285 286 284 281 272 270 272 271 271 273 270 270 268 268 268 269 268 270 269 268 267 267 267 267 266 265 265 265 264 264
280 271 270 271 278 278 276 279 277 277 278 274 278 278 285 283 268 270 272 274 272 270 272 269 270 268 266 267 268 269 266 265 265 263 263 263 264 265 264 264 263 263 263 263
275 270 267 270 273 275 278 281 277 275 274 275 274 284 274 274 273 276 279 277 275 271 271 269 268 267 265 266 266 264 263 262 261 259 260 260 260 261 261 262 262 261 261 262
270 269 266 269 270 270 286 283 281 280 283 277 279 282 284 283 284 283 280 276 273 273 271 269 268 264 265 264 261 259 260 261 258 257 257 258 258 259 260 260 260 260 261 261
278 272 269 271 264 278 285 280 279 279 281 285 282 284 284 280 280 280 277 276 275 273 272 270 268 266 265 264 262 259 261 256 259 258 258 258 256 259 259 259 259 260 261 261
277 277 277 266 271 274 287 278 278 282 283 285 282 283 281 281 281 284 275 275 274 273 272 271 271 271 269 269 269 267 262 259 263 263 261 261 260 259 258 259 260 261 261 261
274 275 273 274 275 277 285 279 281 282 290 281 282 284 281 281 284 276 275 274 274 272 271 271 270 269 269 269 268 266 265 263 264 264 263 261 261 260 260 261 262 261 261 262
278 274 272 275 274 276 282 281 287 295 287 285 283 285 284 284 276 275 274 273 272 270 270 270 268 268 268 268 266 265 263 264 263 262 261 260 260 261 262 261 261 261 261 261
283 287 285 284 283 289 284 290 291 290 290 285 285 285 284 282 276 274 273 272 271 270 270 269 267 266 266 266 265 263 263 263 261 259 258 259 260 261 262 261 260 261 261 261
282 285 284 286 294 294 295 289 287 286 286 287 285 286 284 279 275 273 272 271 270 269 268 266 263 263 263 263 264 261 261 261 258 257 258 259 259 259 260 261 261 260 260 260
288 284 285 287 292 294 294 295 296 291 287 284 282 282 280 277 274 272 271 270 270 268 266 264 262 261 260 262 260 258 260 258 257 258 258 259 259 258 259 260 260 261 262 264
284 290 287 290 298 297 297 289 287 285 282 282 279 276 276 276 273 272 270 270 269 267 266 264 263 262 261 260 259 259 259 259 257 257 258 258 258 258 259 259 259 263 265 267
Wind_Speed
7 11 4 3 4 2 4 3 5 5 5 8 5 18 22 15 8 9 9 8 7 10 6 7 7 7 7 5 3 2 2 3 4 2 2 2 3 4 4 4 6 6 7 6
9 5 2 5 3 3 2 3 5 7 4 4 7 22 10 3 1 2 1 6 6 5 7 6 7 7 7 5 4 3 4 3 2 1 2 2 3 3 4 4 6 8 7 8
7 2 3 2 5 7 3 2 2 6 9 3 8 8 4 2 1 1 4 3 5 6 7 7 7 7 6 6 4 5 3 3 3 4 3 3 3 3 4 6 7 6 9 11
7 2 2 3 4 3 4 3 1 5 7 3 5 6 7 2 1 3 5 6 4 4 4 6 7 6 5 3 6 5 4 3 4 6 4 5 3 6 5 7 6 8 7 10
2 4 6 5 1 1 5 1 2 0 1 4 3 4 10 4 2 2 5 6 7 7 4 3 5 5 6 6 6 4 3 5 6 5 6 5 5 6 6 7 9 10 9 10
3 1 3 2 3 3 5 3 2 2 3 5 3 5 9 2 2 4 4 5 5 6 6 7 6 6 6 4 4 7 8 6 6 6 7 8 8 9 9 10 9 9 9 9
6 2 1 2 3 2 7 6 6 8 6 6 3 2 12 5 2 4 7 4 7 6 7 7 8 7 7 7 7 6 6 6 7 7 8 8 10 8 11 11 10 13 10 9
4 8 3 5 3 0 4 4 6 4 3 6 3 7 7 2 4 6 7 8 7 6 6 7 7 6 6 7 7 7 8 7 8 8 9 8 9 7 8 10 10 9 9 10
4 6 2 3 2 2 3 3 3 4 2 5 5 9 7 4 6 4 6 5 4 5 6 6 5 6 6 7 8 7 7 7 8 8 8 9 9 9 9 11 10 9 11 11
2 5 1 0 1 2 2 1 4 4 5 8 7 7 9 5 6 3 4 4 3 1 3 4 4 5 6 6 6 8 8 7 7 8 8 9 8 10 10 10 12 13 12 13
3 4 5 3 3 5 3 2 3 3 4 5 5 10 7 7 9 9 8 7 4 3 1 2 3 5 5 6 7 6 6 7 8 8 9 9 9 10 10 10 11 12 13 13
0 2 5 7 1 2 1 4 4 6 8 4 3 15 3 6 6 6 7 4 3 3 2 0 3 4 4 4 5 5 6 7 8 8 9 10 10 10 10 11 12 12 13 13
1 2 6 8 2 3 2 5 4 3 3 8 4 13 2 3 4 7 6 6 5 4 2 0 2 2 3 4 4 5 6 7 8 8 9 9 10 10 10 12 12 12 13 13
1 1 7 7 8 2 5 6 5 5 3 5 15 20 18 7 9 6 7 6 6 6 5 3 1 2 3 3 4 4 6 6 8 8 9 10 11 11 11 11 12 12 12 13
4 3 2 8 13 5 15 18 8 13 11 9 24 10 27 16 12 8 5 4 5 6 6 4 3 2 3 4 5 5 5 5 7 7 7 9 10 11 11 12 12 12 12 11
2 4 2 8 4 5 11 13 14 18 18 14 27 32 23 14 2 3 7 6 7 6 6 5 3 3 4 5 5 5 5 6 4 6 7 7 8 10 11 12 12 12 12 12
4 3 3 9 5 10 11 12 10 7 8 9 9 17 4 3 6 6 5 7 6 6 6 5 4 5 5 6 4 5 5 5 6 5 6 6 7 10 11 11 11 11 12 12
5 4 3 6 6 2 9 5 6 12 14 15 13 15 9 7 4 3 4 4 6 6 5 5 4 4 5 3 3 4 4 6 6 7 7 7 7 10 11 11 11 11 10 11
1 4 3 2 3 12 9 3 7 8 11 16 18 19 9 1 3 6 5 4 5 5 4 3 3 3 2 2 3 3 5 4 5 6 7 7 6 11 11 12 12 12 11 11
2 2 1 2 4 9 8 3 3 5 13 7 9 9 5 4 8 5 8 8 8 7 5 4 3 2 3 4 5 7 5 4 6 9 9 10 10 10 11 12 12 10 10 12
4 3 7 7 7 15 15 10 4 2 13 6 7 6 8 6 5 7 11 8 8 7 6 4 3 3 4 5 6 7 7 8 10 11 12 12 12 12 12 12 10 10 11 11
11 11 8 4 6 16 12 6 10 10 4 6 6 6 8 5 8 10 11 11 10 8 5 4 2 3 3 4 6 8 8 9 10 11 11 12 12 11 10 13 11 11 11 10
5 14 9 15 15 5 13 9 11 3 5 6 4 7 8 6 8 11 10 10 8 7 5 3 2 3 3 4 5 8 9 9 10 11 11 10 12 11 11 12 12 10 10 9
7 6 6 4 21 32 21 19 13 8 10 4 6 6 8 7 11 10 10 9 7 5 4 2 2 3 3 3 6 5 8 8 9 11 11 11 10 11 11 9 9 9 9 9
8 10 9 19 33 27 24 24 22 10 5 4 5 6 9 11 12 13 9 9 7 6 3 3 1 1 3 4 5 5 6 6 8 10 11 10 9 10 10 9 9 10 10 13
9 15 12 22 28 19 20 2 5 8 6 8 9 7 8 11 14 12 10 8 7 6 4 3 0 2 3 5 5 6 5 7 9 10 9 8 8 8 8 9 10 18 21 23
Wind_Direction
19 64 63 323 1 350 282 297 308 293 10 342 264 283 295 296 265 262 227 228 223 208 176 169 150 145 147 166 176 137 60 36 40 6 343 321 313 313 322 304 324 340 330 327
27 67 342 316 326 341 291 333 330 290 321 348 313 299 296 286 135 111 117 227 234 144 143 152 155 165 173 168 180 153 84 48 25 9 312 314 320 312 300 313 340 324 329 321
94 34 326 346 29 31 24 121 2 251 321 268 303 299 329 235 356 50 47 57 54 160 172 174 180 193 179 185 188 111 93 46 -0 1 346 336 306 303 316 332 328 326 327 326
85 294 1 26 67 22 325 127 285 306 13 285 25 276 305 287 92 21 34 38 26 41 136 176 193 192 176 162 121 118 96 45 25 19 5 348 331 332 329 321 320 321 325 321
262 3 16 48 325 125 250 326 225 142 86 22 323 73 265 270 171 80 54 59 35 19 56 131 117 97 111 125 129 135 91 46 36 20 12 3 348 330 327 325 326 323 323 322
90 273 54 284 292 224 303 35 92 66 93 14 274 103 283 240 175 151 85 61 51 33 57 75 82 110 99 89 62 48 49 38 27 23 7 1 351 340 337 333 327 328 325 319
345 11 353 5 331 335 31 36 344 355 6 232 333 30 248 269 16 135 147 121 66 52 55 57 58 56 61 59 48 53 40 26 20 13 9 4 353 346 335 333 330 326 324 327
73 328 25 352 63 180 9 111 140 271 287 284 6 240 253 130 110 117 114 111 89 57 40 56 63 65 59 56 46 38 30 20 11 13 6 356 354 339 336 334 332 326 331 328
34 281 113 51 21 94 302 59 137 95 83 44 258 282 293 88 20 86 108 90 74 45 38 57 48 48 52 54 39 31 25 14 17 9 1 349 341 343 337 335 331 333 327 329
177 329 211 249 97 23 98 122 35 8 338 304 287 280 246 267 233 272 123 199 209 47 44 51 50 51 58 45 31 33 21 10 6 1 353 341 341 341 337 336 333 331 326 330
130 108 287 59 193 173 21 6 28 132 145 204 301 266 221 216 192 180 218 238 218 266 102 55 60 65 64 43 23 22 10 1 357 354 337 338 341 342 337 332 332 327 330 326
349 151 274 237 78 51 172 198 164 125 276 229 165 266 207 228 196 178 223 228 189 201 186 128 77 53 50 26 16 11 357 352 345 342 332 337 338 336 332 330 326 333 324 326
57 321 342 345 25 14 197 219 149 116 76 227 153 263 301 354 293 252 240 225 210 194 208 163 57 28 5 7 358 357 345 336 336 330 332 330 333 329 328 326 328 324 323 320
50 245 184 209 227 149 266 211 196 150 150 223 230 271 278 251 250 251 238 218 209 196 189 194 247 305 344 334 326 321 313 326 327 327 326 329 328 326 326 321 323 319 318 316
100 218 297 244 266 222 262 263 203 204 216 208 270 265 275 290 288 270 220 201 198 195 192 193 216 260 278 297 299 300 291 301 318 316 310 318 318 321 319 320 318 313 313 312
42 257 37 279 257 262 268 252 217 230 247 256 262 275 271 278 114 237 233 200 211 191 188 194 210 254 276 282 282 296 303 297 311 303 293 307 305 314 318 316 313 312 310 310
149 127 60 264 355 335 291 246 185 196 207 175 201 249 168 250 240 244 221 207 200 175 182 193 219 243 259 272 276 298 293 304 307 298 304 306 307 313 316 309 311 307 307 306
145 122 128 271 351 316 242 203 193 197 243 208 268 267 242 229 229 226 197 180 159 170 174 199 222 253 265 287 309 306 313 320 317 311 306 306 305 315 316 312 309 304 303 307
76 134 263 270 225 288 274 222 187 181 274 240 228 255 267 77 6 270 135 125 150 170 177 191 206 225 280 322 297 322 320 318 316 308 306 304 300 314 313 309 305 303 305 312
69 69 152 65 239 263 217 179 131 131 284 209 194 235 167 105 285 302 143 140 146 135 136 128 89 42 8 349 347 330 315 319 321 328 322 317 312 306 305 299 300 300 306 303
149 171 220 233 258 278 256 147 155 168 297 204 187 190 167 199 224 123 142 145 140 139 137 108 72 42 6 354 345 329 329 328 328 328 323 317 314 311 303 300 304 303 304 308
168 166 200 196 221 276 135 92 190 241 189 190 190 202 216 218 129 145 155 155 150 145 136 105 77 19 3 2 343 330 328 329 324 323 317 315 313 312 310 313 312 312 311 311
209 203 198 194 217 234 195 233 227 185 212 198 199 205 198 175 158 158 162 158 151 150 138 110 52 1 358 356 345 328 324 324 323 319 313 312 312 313 317 317 317 316 320 312
246 204 225 325 245 254 249 243 250 203 223 219 201 181 170 157 153 155 162 149 149 147 143 125 64 344 326 335 342 309 320 328 321 315 318 318 318 318 315 318 313 320 317 316
187 146 204 249 266 279 265 260 265 246 173 140 124 164 164 142 152 160 158 155 148 144 135 125 141 309 305 333 324 314 321 318 323 321 318 318 319 316 316 318 320 321 315 316
184 213 220 248 252 259 282 114 144 155 181 171 145 130 150 148 158 154 150 148 147 148 135 141 124 343 330 332 315 318 326 331 329 323 324 318 317 316 317 322 318 320 327 331